Time,TemperatureF,DewpointF,PressureIn,WindDirection,WindDirectionDegrees,WindSpeedMPH,WindSpeedGustMPH,Humidity,HourlyPrecipIn,Conditions,Clouds,dailyrainin,SoftwareType,DateUTC
2013-03-31 00:02:00,48.8,39.0,29.97,ESE,117,0.0,1.0,70,0.00,,,0.00,weatherlink.com 1.10,2013-03-31 07:02:00,
2013-03-31 00:17:00,48.1,39.0,29.97,ESE,120,1.0,2.0,71,0.00,,,0.00,weatherlink.com 1.10,2013-03-31 07:17:00,
2013-03-31 00:32:00,48.0,39.0,29.96,ESE,120,0.0,2.0,72,0.00,,,0.00,weatherlink.com 1.10,2013-03-31 07:32:00,
2013-03-31 00:47:00,48.7,40.0,29.96,ESE,120,0.0,1.0,71,0.00,,,0.00,weatherlink.com 1.10,2013-03-31 07:47:00,
2013-03-31 01:02:00,47.3,39.0,29.96,ESE,120,0.0,1.0,74,0.00,,,0.00,weatherlink.com 1.10,2013-03-31 08:02:00,
2013-03-31 01:32:00,47.0,39.0,29.95,ESE,120,0.0,1.0,74,0.00,,,0.00,weatherlink.com 1.10,2013-03-31 08:32:00,
2013-03-31 01:47:00,46.9,39.0,29.95,ESE,120,0.0,1.0,75,0.00,,,0.00,weatherlink.com 1.10,2013-03-31 08:47:00,
2013-03-31 02:02:00,46.3,39.0,29.95,ESE,120,0.0,0.0,75,0.00,,,0.00,weatherlink.com 1.10,2013-03-31 09:02:00,
2013-03-31 02:17:00,45.5,38.0,29.94,ESE,120,0.0,1.0,76,0.00,,,0.00,weatherlink.com 1.10,2013-03-31 09:17:00,
2013-03-31 02:32:00,45.6,39.0,29.94,SE,134,0.0,1.0,77,0.00,,,0.00,weatherlink.com 1.10,2013-03-31 09:32:00,
2013-03-31 02:47:00,44.9,38.0,29.94,SE,134,0.0,0.0,78,0.00,,,0.00,weatherlink.com 1.10,2013-03-31 09:47:00,
2013-03-31 03:02:00,44.9,38.0,29.94,SSE,149,1.0,2.0,78,0.00,,,0.00,weatherlink.com 1.10,2013-03-31 10:02:00,
2013-03-31 03:17:00,44.0,38.0,29.94,SSE,148,0.0,0.0,79,0.00,,,0.00,weatherlink.com 1.10,2013-03-31 10:17:00,
2013-03-31 03:33:00,42.9,38.0,29.93,SE,136,1.0,1.0,82,0.00,,,0.00,weatherlink.com 1.10,2013-03-31 10:33:00,
2013-03-31 03:48:00,43.0,38.0,29.93,SE,135,0.0,1.0,83,0.00,,,0.00,weatherlink.com 1.10,2013-03-31 10:48:00,
2013-03-31 04:03:00,43.1,38.0,29.93,SSE,148,0.0,3.0,82,0.00,,,0.00,weatherlink.com 1.10,2013-03-31 11:03:00,
2013-03-31 04:18:00,42.5,38.0,29.92,SE,146,0.0,1.0,83,0.00,,,0.00,weatherlink.com 1.10,2013-03-31 11:18:00,
2013-03-31 04:33:00,42.2,38.0,29.92,SE,144,0.0,1.0,84,0.00,,,0.00,weatherlink.com 1.10,2013-03-31 11:33:00,
2013-03-31 04:48:00,42.2,38.0,29.92,SE,143,0.0,1.0,85,0.00,,,0.00,weatherlink.com 1.10,2013-03-31 11:48:00,
2013-03-31 05:03:00,42.7,38.0,29.91,SE,135,0.0,1.0,84,0.00,,,0.00,weatherlink.com 1.10,2013-03-31 12:03:00,
2013-03-31 05:18:00,42.2,37.0,29.91,SE,129,0.0,1.0,83,0.00,,,0.00,weatherlink.com 1.10,2013-03-31 12:18:00,
2013-03-31 05:33:00,41.1,37.0,29.91,SE,136,0.0,2.0,86,0.00,,,0.00,weatherlink.com 1.10,2013-03-31 12:33:00,
2013-03-31 05:48:00,42.0,37.0,29.91,SE,135,0.0,1.0,83,0.00,,,0.00,weatherlink.com 1.10,2013-03-31 12:48:00,
2013-03-31 06:03:00,42.1,36.0,29.92,SE,129,0.0,1.0,80,0.00,,,0.00,weatherlink.com 1.10,2013-03-31 13:03:00,
2013-03-31 06:18:00,42.0,36.0,29.92,SE,129,0.0,1.0,80,0.00,,,0.00,weatherlink.com 1.10,2013-03-31 13:18:00,
2013-03-31 06:33:00,41.9,36.0,29.92,SE,129,0.0,1.0,79,0.00,,,0.00,weatherlink.com 1.10,2013-03-31 13:33:00,
2013-03-31 06:48:00,42.3,36.0,29.92,SE,127,0.0,1.0,78,0.00,,,0.00,weatherlink.com 1.10,2013-03-31 13:48:00,
2013-03-31 07:03:00,42.2,36.0,29.92,SE,127,0.0,1.0,80,0.00,,,0.00,weatherlink.com 1.10,2013-03-31 14:03:00,
2013-03-31 07:18:00,41.4,36.0,29.91,ESE,120,1.0,2.0,81,0.00,,,0.00,weatherlink.com 1.10,2013-03-31 14:18:00,
2013-03-31 07:33:00,40.9,36.0,29.91,ESE,117,1.0,2.0,84,0.00,,,0.00,weatherlink.com 1.10,2013-03-31 14:33:00,
2013-03-31 07:48:00,41.5,37.0,29.91,SE,128,0.0,0.0,84,0.00,,,0.00,weatherlink.com 1.10,2013-03-31 14:48:00,
2013-03-31 08:03:00,41.9,37.0,29.91,SE,128,0.0,0.0,83,0.00,,,0.00,weatherlink.com 1.10,2013-03-31 15:03:00,
2013-03-31 08:18:00,42.2,38.0,29.92,South,172,0.0,2.0,86,0.00,,,0.00,weatherlink.com 1.10,2013-03-31 15:18:00,
2013-03-31 08:33:00,43.5,39.0,29.92,SSE,164,0.0,2.0,85,0.00,,,0.00,weatherlink.com 1.10,2013-03-31 15:33:00,
2013-03-31 08:48:00,44.6,39.0,29.92,WNW,287,0.0,2.0,81,0.00,,,0.00,weatherlink.com 1.10,2013-03-31 15:48:00,
2013-03-31 09:03:00,45.9,39.0,29.91,NW,321,0.0,0.0,78,0.00,,,0.00,weatherlink.com 1.10,2013-03-31 16:03:00,
2013-03-31 09:18:00,47.0,39.0,29.91,WNW,290,0.0,0.0,75,0.00,,,0.00,weatherlink.com 1.10,2013-03-31 16:18:00,
2013-03-31 09:33:00,48.5,40.0,29.92,NW,318,0.0,1.0,73,0.00,,,0.00,weatherlink.com 1.10,2013-03-31 16:33:00,
2013-03-31 09:48:00,49.1,41.0,29.92,NW,326,0.0,2.0,73,0.00,,,0.00,weatherlink.com 1.10,2013-03-31 16:48:00,
2013-03-31 10:03:00,49.8,41.0,29.91,West,279,1.0,4.0,71,0.00,,,0.00,weatherlink.com 1.10,2013-03-31 17:03:00,
2013-03-31 10:18:00,50.8,41.0,29.91,NW,307,1.0,4.0,70,0.00,,,0.00,weatherlink.com 1.10,2013-03-31 17:18:00,
2013-03-31 10:33:00,51.6,41.0,29.91,West,264,2.0,4.0,67,0.00,,,0.00,weatherlink.com 1.10,2013-03-31 17:33:00,
2013-03-31 10:48:00,52.4,41.0,29.91,NW,322,1.0,4.0,66,0.00,,,0.00,weatherlink.com 1.10,2013-03-31 17:48:00,
2013-03-31 11:03:00,52.9,41.0,29.91,NW,318,3.0,5.0,65,0.00,,,0.00,weatherlink.com 1.10,2013-03-31 18:03:00,
2013-03-31 11:18:00,53.8,41.0,29.91,WNW,288,3.0,4.0,62,0.00,,,0.00,weatherlink.com 1.10,2013-03-31 18:18:00,
2013-03-31 11:33:00,54.1,40.0,29.91,West,269,2.0,7.0,60,0.00,,,0.00,weatherlink.com 1.10,2013-03-31 18:33:00,
2013-03-31 11:48:00,54.8,42.0,29.91,WNW,300,4.0,10.0,62,0.00,,,0.00,weatherlink.com 1.10,2013-03-31 18:48:00,
2013-03-31 12:04:00,55.9,42.0,29.90,NW,307,2.0,7.0,59,0.00,,,0.00,weatherlink.com 1.10,2013-03-31 19:04:00,
2013-03-31 12:19:00,57.1,43.0,29.90,NNW,338,3.0,5.0,59,0.00,,,0.00,weatherlink.com 1.10,2013-03-31 19:19:00,
2013-03-31 12:34:00,57.4,43.0,29.89,NW,318,3.0,10.0,58,0.00,,,0.00,weatherlink.com 1.10,2013-03-31 19:34:00,
2013-03-31 12:49:00,57.4,43.0,29.89,NNW,334,2.0,7.0,59,0.00,,,0.00,weatherlink.com 1.10,2013-03-31 19:49:00,
2013-03-31 13:04:00,58.1,43.0,29.88,NW,307,3.0,12.0,58,0.00,,,0.00,weatherlink.com 1.10,2013-03-31 20:04:00,
2013-03-31 13:19:00,58.6,43.0,29.88,NW,318,4.0,7.0,56,0.00,,,0.00,weatherlink.com 1.10,2013-03-31 20:19:00,
2013-03-31 13:34:00,59.3,42.0,29.87,NNW,327,4.0,7.0,54,0.00,,,0.00,weatherlink.com 1.10,2013-03-31 20:34:00,
2013-03-31 13:49:00,60.1,42.0,29.86,North,6,4.0,9.0,51,0.00,,,0.00,weatherlink.com 1.10,2013-03-31 20:49:00,
2013-03-31 14:04:00,60.7,42.0,29.86,NNW,345,4.0,9.0,51,0.00,,,0.00,weatherlink.com 1.10,2013-03-31 21:04:00,
2013-03-31 14:19:00,60.9,41.0,29.85,NNW,330,4.0,11.0,49,0.00,,,0.00,weatherlink.com 1.10,2013-03-31 21:19:00,
2013-03-31 14:34:00,61.7,42.0,29.85,NW,320,7.0,12.0,48,0.00,,,0.00,weatherlink.com 1.10,2013-03-31 21:34:00,
2013-03-31 14:49:00,61.9,42.0,29.84,North,349,3.0,13.0,48,0.00,,,0.00,weatherlink.com 1.10,2013-03-31 21:49:00,
2013-03-31 15:04:00,61.8,41.0,29.84,North,359,9.0,12.0,46,0.00,,,0.00,weatherlink.com 1.10,2013-03-31 22:04:00,
2013-03-31 15:19:00,62.6,41.0,29.83,NNW,342,5.0,11.0,45,0.00,,,0.00,weatherlink.com 1.10,2013-03-31 22:19:00,
2013-03-31 15:34:00,62.2,41.0,29.83,NW,326,4.0,11.0,46,0.00,,,0.00,weatherlink.com 1.10,2013-03-31 22:34:00,
2013-03-31 15:49:00,62.5,41.0,29.82,NNW,327,6.0,13.0,46,0.00,,,0.00,weatherlink.com 1.10,2013-03-31 22:49:00,
2013-03-31 16:04:00,62.7,41.0,29.82,NW,316,4.0,13.0,45,0.00,,,0.00,weatherlink.com 1.10,2013-03-31 23:04:00,
2013-03-31 16:19:00,62.9,41.0,29.82,NNW,331,4.0,11.0,45,0.00,,,0.00,weatherlink.com 1.10,2013-03-31 23:19:00,
2013-03-31 16:34:00,62.9,40.0,29.81,WNW,303,5.0,10.0,43,0.00,,,0.00,weatherlink.com 1.10,2013-03-31 23:34:00,
2013-03-31 16:49:00,63.7,39.0,29.80,NNW,328,5.0,12.0,41,0.00,,,0.00,weatherlink.com 1.10,2013-03-31 23:49:00,
2013-03-31 17:04:00,63.8,39.0,29.80,NNW,342,9.0,11.0,40,0.00,,,0.00,weatherlink.com 1.10,2013-04-01 00:04:00,
2013-03-31 17:19:00,63.6,39.0,29.80,NNE,19,4.0,14.0,40,0.00,,,0.00,weatherlink.com 1.10,2013-04-01 00:19:00,
2013-03-31 17:34:00,63.5,37.0,29.80,NNW,328,4.0,16.0,38,0.00,,,0.00,weatherlink.com 1.10,2013-04-01 00:34:00,
2013-03-31 17:49:00,62.9,38.0,29.80,North,354,8.0,14.0,40,0.00,,,0.00,weatherlink.com 1.10,2013-04-01 00:49:00,
2013-03-31 18:04:00,61.7,38.0,29.80,NNW,336,5.0,15.0,41,0.00,,,0.00,weatherlink.com 1.10,2013-04-01 01:04:00,
2013-03-31 18:19:00,61.0,37.0,29.79,NNW,328,5.0,14.0,41,0.00,,,0.00,weatherlink.com 1.10,2013-04-01 01:19:00,
2013-03-31 18:34:00,59.9,37.0,29.80,NNW,329,3.0,21.0,42,0.00,,,0.00,weatherlink.com 1.10,2013-04-01 01:34:00,
2013-03-31 18:49:00,59.1,36.0,29.80,NW,319,6.0,14.0,43,0.00,,,0.00,weatherlink.com 1.10,2013-04-01 01:49:00,
2013-03-31 19:04:00,57.6,37.0,29.81,NNW,333,4.0,9.0,46,0.00,,,0.00,weatherlink.com 1.10,2013-04-01 02:04:00,
2013-03-31 19:19:00,55.7,37.0,29.81,NW,320,5.0,8.0,49,0.00,,,0.00,weatherlink.com 1.10,2013-04-01 02:19:00,
2013-03-31 19:34:00,53.8,36.0,29.81,NNW,332,2.0,7.0,52,0.00,,,0.00,weatherlink.com 1.10,2013-04-01 02:34:00,
2013-03-31 19:49:00,52.1,36.0,29.81,NNW,336,1.0,3.0,55,0.00,,,0.00,weatherlink.com 1.10,2013-04-01 02:49:00,
2013-03-31 20:04:00,50.5,36.0,29.82,North,360,2.0,3.0,58,0.00,,,0.00,weatherlink.com 1.10,2013-04-01 03:04:00,
2013-03-31 20:19:00,49.6,36.0,29.82,North,354,1.0,3.0,60,0.00,,,0.00,weatherlink.com 1.10,2013-04-01 03:19:00,
2013-03-31 20:34:00,48.3,36.0,29.83,NNW,345,0.0,1.0,62,0.00,,,0.00,weatherlink.com 1.10,2013-04-01 03:34:00,
2013-03-31 20:50:00,47.1,35.0,29.84,North,349,1.0,3.0,64,0.00,,,0.00,weatherlink.com 1.10,2013-04-01 03:50:00,
2013-03-31 21:05:00,47.0,35.0,29.84,North,11,0.0,2.0,64,0.00,,,0.00,weatherlink.com 1.10,2013-04-01 04:05:00,
2013-03-31 21:20:00,46.6,35.0,29.84,WNW,295,0.0,1.0,64,0.00,,,0.00,weatherlink.com 1.10,2013-04-01 04:20:00,
2013-03-31 21:35:00,45.1,35.0,29.85,NNW,347,0.0,1.0,67,0.00,,,0.00,weatherlink.com 1.10,2013-04-01 04:35:00,
2013-03-31 21:50:00,44.8,34.0,29.85,West,274,0.0,1.0,67,0.00,,,0.00,weatherlink.com 1.10,2013-04-01 04:50:00,
2013-03-31 22:05:00,44.3,34.0,29.86,NNE,16,0.0,1.0,68,0.00,,,0.00,weatherlink.com 1.10,2013-04-01 05:05:00,
2013-03-31 22:20:00,44.0,34.0,29.85,NNW,344,2.0,5.0,68,0.00,,,0.00,weatherlink.com 1.10,2013-04-01 05:20:00,
2013-03-31 22:35:00,44.6,34.0,29.85,NNW,329,2.0,4.0,66,0.00,,,0.00,weatherlink.com 1.10,2013-04-01 05:35:00,
2013-03-31 22:50:00,45.4,34.0,29.85,NNW,342,2.0,7.0,65,0.00,,,0.00,weatherlink.com 1.10,2013-04-01 05:50:00,
2013-03-31 23:05:00,45.0,34.0,29.86,NW,323,3.0,6.0,66,0.00,,,0.00,weatherlink.com 1.10,2013-04-01 06:05:00,
2013-03-31 23:20:00,44.5,34.0,29.86,NW,325,2.0,5.0,67,0.00,,,0.00,weatherlink.com 1.10,2013-04-01 06:20:00,
2013-03-31 23:35:00,44.3,34.0,29.86,NW,326,2.0,5.0,67,0.00,,,0.00,weatherlink.com 1.10,2013-04-01 06:35:00,
2013-03-31 23:50:00,44.6,34.0,29.86,North,349,3.0,6.0,66,0.00,,,0.00,weatherlink.com 1.10,2013-04-01 06:50:00,